Location: Blankensee
(53.5126°N, 14.3055°E)
Time: 17:10:42
(UTC+00:00)

IRS-1C - Pass Details

Date: 08 August 2020
Orbit: 816 x 817 km, 98.8° (Epoch: 19 September)

Event Time Altitude Azimuth Distance (km) Brightness Sun altitude
Rises 02:03:18 0° 15° (NNE) 3,360 8.5 -11.0°
Reaches altitude 10° 02:05:39 10° 15° (NNE) 2,423 7.7 -10.8°
Maximum altitude 02:11:02 86° 287° (WNW) 827 4.2 -10.2°
Drops below altitude 10° 02:16:22 10° 200° (SSW) 2,405 6.0 -9.7°
Enters shadow 02:16:33 - 200° (SSW) 2,476 6.1 -9.6°
